Location: Banff
(51.1667°N, 115.5667°W)
Time: 11:14:32
(UTC+00:00)

A-11 Canister half - Visible Passes

Search period start: 30 November 2020 00:00
Search period end: 10 December 2020 00:00
Orbit: 1516 x 1684 km, 47.2° (Epoch: 29 November)

Date Brightness Start Highest point End Pass type
(mag) Time Alt. Az. Time Alt. Az. Time Alt. Az.
30 Nov 10.1 00:35:25 10° W 00:44:56 48° SSW 00:54:27 10° SE visible
30 Nov 11.2 02:41:31 10° W 02:48:04 20° SW 02:54:36 10° S visible
01 Dec 10.1 00:12:28 10° W 00:22:02 50° SSW 00:31:38 10° SE visible
01 Dec 11.2 02:18:24 10° W 02:25:16 21° SW 02:32:07 10° S visible
02 Dec 11.2 01:55:18 10° W 02:02:26 22° SW 02:09:35 10° S visible
03 Dec 11.2 01:32:13 10° W 01:39:37 24° SW 01:47:02 10° S visible
04 Dec 11.2 01:09:09 10° W 01:16:47 25° SW 01:24:27 10° S visible
05 Dec 11.2 00:46:07 10° W 00:53:58 27° SW 01:01:50 10° S visible
06 Dec 11.3 00:23:06 10° W 00:31:08 28° SW 00:39:12 10° S visible
07 Dec 11.3 00:00:05 10° W 00:08:18 30° SW 00:16:33 10° SSE visible
09 Dec 11.6 14:38:12 10° SSE 14:44:03 18° SE 14:50:01 10° E visible
